Regional Weather Roundup
Issued by NWS

Home | Current Version | Previous Version | Text Only | Print | Product List | Glossary On
Versions: 1 2 3 4 5 6 7 8 9 10 11 12 13 14 15 16 17 18 19 20 21 22 23 24 25 26 27 28 29 30 31 32 33 34 35 36 37 38 39 40 41 42 43 44 45 46 47 48 49 50
000
ASUS45 KCYS 270510
RWRWY

WYOMING REGIONAL WEATHER ROUNDUP
NATIONAL WEATHER SERVICE CHEYENNE WY
1100 PM MDT THU MAR 26 2015

NOTE:  "FAIR" INDICATES FEW OR NO CLOUDS BELOW 12,000 FEET
WITH NO SIGNIFICANT WEATHER AND/OR OBSTRUCTIONS TO VISIBILITY.

WYZ001-270600-
YELLOWSTONE NATIONAL PARK

CITY           SKY/WX    TMP DP  RH WIND       PRES   REMARKS
LK YELLOWSTONE   N/A     29  27  92 CALM      30.39S
W YELLOWSTONE  NOT AVBL

$$
WYZ002>013-054>058-071-098>099-270600-
NORTHERN WYOMING

CITY           SKY/WX    TMP DP  RH WIND       PRES   REMARKS
JACKSON        MOCLDY    37  32  81 N3        30.36S
CODY           FAIR      54  30  40 W22G32    30.15F
GREYBULL       CLOUDY    52  32  46 SE3       30.13R
WORLAND        FAIR      40  30  67 S6        30.14R
SHERIDAN       CLOUDY    50  38  63 W7        30.11R
BUFFALO        MOCLDY    46  37  71 VRB5      30.14R
GILLETTE       CLOUDY    41  38  89 S6        30.12S
HULETT         CLOUDY    39  37  93 SW7       30.12S WCI  34
NEWCASTLE      CLOUDY    41  32  70 SE7       30.15R

$$
WYZ014>020-022>026-101>103-270600-
CENTRAL WYOMING

CITY           SKY/WX    TMP DP  RH WIND       PRES   REMARKS
BIG PINEY      FAIR      35  26  69 N9        30.35R WCI  28
PINEDALE       FAIR      39  30  70 W20G25    30.33S WCI  30
DUBOIS         CLOUDY    43  28  56 W14G23    30.32R
LANDER         FAIR      47  25  42 W9        30.20R
RIVERTON       FAIR      50  30  46 NW21      30.20S
CASPER         CLOUDY    45  32  60 SW7       30.17S
DOUGLAS        CLOUDY    44  32  62 CALM      30.16S

$$
WYZ021-027>030-104>119-270600-
SOUTHERN WYOMING

CITY           SKY/WX    TMP DP  RH WIND       PRES   REMARKS
EVANSTON       FAIR      41  27  57 SW3       30.40R
KEMMERER       FAIR      36  30  80 NW7       30.40R WCI  30
FORT BRIDGER   FAIR      42  30  63 W10       30.41R
ROCK SPRINGS   FAIR      41  29  62 W14       30.32S
DIXON          FAIR      44  29  55 W8        30.33R
RAWLINS        FAIR      40  27  59 W5        30.26R
SARATOGA       CLOUDY    45  28  53 W20       30.27R
LARAMIE        CLOUDY    40  27  59 NW7       30.22S
CHEYENNE       CLOUDY    41  26  55 E3        30.18S
TORRINGTON     CLOUDY    40  32  73 E3        30.15S
PINE BLUFFS    CLOUDY    37  30  75 W5        30.18S WCI  34

$$


USA.gov is the U.S. government's official web portal to all federal, state and local government web resources and services.